Temperature
28 24 24 24 25 26 27 28 28 29 30 29 28 27 27 27 27 26 25 24 24 24 24 24 23 23 22 22 21 21 20 20 20 19 19 19 18 18 18 18 18 18 18 18
24 24 25 26 27 28 28 28 28 28 30 29 28 27 27 27 26 26 25 24 24 24 23 23 23 23 22 22 21 21 21 20 20 20 19 19 19 18 18 18 18 18 18 18
25 25 28 28 28 28 28 28 28 28 29 28 27 26 25 26 26 26 26 25 24 24 23 23 23 23 22 22 21 21 21 20 20 19 19 19 18 18 18 18 18 18 18 18
25 26 28 28 29 29 27 29 29 29 26 25 26 24 25 24 24 24 25 25 24 24 24 23 23 23 22 22 21 21 20 20 20 19 19 19 19 19 19 18 18 18 18 18
25 27 28 28 29 30 29 29 28 28 26 24 24 24 23 24 24 24 24 24 24 24 24 23 23 23 22 22 21 21 20 20 19 19 19 19 19 19 18 18 18 18 18 18
25 27 28 28 29 30 29 27 25 22 22 23 24 24 23 22 24 24 24 24 24 24 24 23 23 22 22 21 21 20 20 20 19 19 19 19 19 18 18 18 18 18 18 18
25 26 28 29 29 29 27 23 22 23 21 22 23 24 23 24 24 24 24 24 24 24 23 23 22 22 21 21 21 20 20 20 19 19 19 19 18 18 18 18 18 18 18 18
24 24 26 28 28 27 26 23 22 23 23 22 23 23 23 24 25 25 24 24 23 23 23 23 22 22 22 21 21 20 20 20 19 19 19 19 18 18 18 18 18 18 18 18
23 23 27 28 29 28 27 24 22 21 22 22 22 24 24 24 24 24 23 23 22 22 23 23 22 22 22 21 21 20 20 20 19 19 19 18 18 18 18 18 18 18 18 18
23 24 25 28 29 28 27 25 21 21 22 22 23 23 22 23 23 23 22 22 22 22 23 22 22 22 22 22 21 20 20 19 19 19 18 18 18 18 18 18 18 18 18 18
23 24 24 25 27 27 27 26 22 19 20 21 22 22 24 23 23 22 22 22 23 23 23 23 22 22 22 21 21 20 20 19 19 19 19 18 18 18 18 18 18 18 18 17
23 21 22 23 25 27 26 25 22 22 22 20 20 22 24 23 23 23 22 23 23 23 23 23 22 22 21 21 21 20 19 19 19 19 18 18 18 18 18 18 18 17 17 17
23 21 22 22 23 26 27 26 23 20 20 20 21 23 23 23 22 23 23 23 23 23 23 22 22 22 21 21 20 20 20 19 19 18 18 18 18 18 18 18 18 17 17 17
23 20 21 22 22 25 26 26 25 21 21 21 22 23 23 23 22 22 23 24 24 23 23 22 22 21 21 21 20 20 19 19 19 18 18 18 18 18 18 18 17 17 17 17
21 21 23 23 24 26 26 26 26 24 22 22 23 23 23 22 22 22 23 23 23 22 22 22 22 21 21 20 20 20 19 19 18 18 18 18 18 18 17 17 17 17 17 17
19 21 23 24 25 25 26 26 26 26 25 24 24 23 23 23 24 23 22 22 22 22 22 22 22 21 21 20 20 20 19 19 19 18 18 18 17 17 17 17 17 16 16 16
18 20 20 21 23 24 24 25 25 25 25 24 23 23 22 22 22 22 22 22 22 22 22 22 22 22 21 20 20 20 19 19 18 18 18 17 17 17 17 17 16 16 16 16
19 18 17 19 22 23 22 23 24 24 23 23 23 22 22 22 23 23 23 22 22 22 22 22 22 21 21 20 20 19 19 19 18 18 18 17 17 17 17 16 16 16 16 15
18 18 18 18 20 21 23 23 24 23 22 22 22 22 22 23 22 21 22 23 23 23 23 22 22 21 20 20 19 19 19 18 18 18 17 17 17 17 16 16 16 15 15 15
18 17 17 18 21 21 21 22 24 22 20 21 21 20 21 22 19 20 22 22 23 23 23 22 21 21 20 20 19 19 18 18 18 17 17 17 16 16 16 16 15 15 15 15
18 18 18 18 19 19 20 21 22 21 19 20 21 21 21 20 20 21 21 22 22 22 22 21 21 20 20 19 19 19 18 18 17 17 17 16 16 16 16 15 15 15 14 14
17 17 17 16 18 18 19 20 19 18 19 20 20 21 20 20 21 21 21 21 21 21 21 21 20 20 19 19 19 18 18 17 17 16 16 16 16 16 15 15 15 14 14 14
16 16 15 16 16 17 19 19 19 20 20 20 20 20 20 20 20 20 20 20 20 20 20 19 19 19 19 18 18 18 17 17 16 16 16 15 15 15 15 14 14 14 13 13
16 16 15 15 16 17 19 19 19 20 20 20 20 20 20 20 20 20 19 19 20 19 19 19 19 18 18 17 17 17 17 16 16 15 15 15 15 14 14 14 14 13 13 13
16 15 15 15 15 17 18 19 19 19 19 19 19 20 20 19 19 19 19 18 19 18 18 18 18 18 17 17 17 16 16 16 16 15 15 15 14 14 14 13 13 13 13 12
14 15 14 14 16 15 17 18 19 19 19 19 19 18 18 19 18 18 18 18 18 18 17 17 17 17 17 16 16 16 16 16 15 15 15 14 14 14 13 13 13 12 12 12
Wind_Speed
2 2 5 9 8 8 6 4 5 6 3 3 5 5 7 10 11 11 11 12 12 11 10 11 13 13 13 11 12 11 10 9 8 5 4 4 4 4 4 5 10 11 11 11
4 6 11 9 8 6 5 4 5 5 2 3 3 2 4 7 11 13 14 13 13 11 8 10 11 12 12 12 11 11 11 10 9 6 5 3 4 3 4 4 7 10 10 10
7 9 6 6 8 6 4 3 4 4 4 6 5 4 2 1 4 7 11 12 13 16 15 13 12 12 12 13 13 12 10 10 9 8 5 3 3 2 1 3 3 5 9 9
8 9 8 7 5 2 4 4 2 3 4 3 3 0 5 2 3 6 8 9 10 11 12 12 12 12 13 12 12 11 10 9 9 8 7 7 6 5 5 4 4 4 7 8
7 5 5 7 7 4 5 3 2 2 3 4 4 3 5 1 4 6 8 10 11 12 14 13 12 12 11 11 10 9 9 9 8 8 9 8 5 4 3 3 4 4 3 5
9 7 5 7 7 5 2 6 8 7 6 2 3 3 4 4 7 7 8 9 11 11 11 10 9 9 8 8 8 9 9 8 8 8 8 7 7 6 5 5 5 4 3 3
7 9 7 4 3 3 5 7 5 6 5 5 4 2 6 7 6 9 10 10 10 10 9 10 10 9 8 9 9 9 9 8 8 8 7 7 7 7 7 6 6 5 3 3
5 8 6 5 8 6 4 10 8 5 4 5 5 1 6 4 3 6 7 9 10 9 7 8 9 10 9 9 9 9 9 7 8 8 7 6 6 5 4 5 5 5 5 5
7 8 7 7 7 10 6 6 10 7 2 1 4 4 5 2 4 6 8 9 9 9 8 7 6 8 9 9 9 10 9 8 8 8 7 5 5 5 5 4 4 4 4 4
9 5 8 6 1 4 9 9 7 5 4 2 4 3 5 6 6 6 7 8 7 6 7 7 6 5 6 9 8 8 9 9 7 7 6 6 5 5 4 4 4 4 3 3
10 6 8 5 3 8 5 5 6 6 6 6 3 7 7 11 11 10 10 10 9 9 8 8 7 6 6 7 8 8 7 8 8 8 6 5 4 4 4 4 4 3 3 3
9 7 6 9 7 7 8 9 9 6 4 6 5 7 5 8 9 10 10 10 9 9 9 9 9 8 7 7 8 8 7 8 8 7 6 5 4 4 4 3 3 3 3 3
8 7 3 8 8 3 3 5 8 7 6 5 5 6 2 6 7 8 10 9 9 8 9 8 8 8 7 7 7 7 7 8 7 7 6 5 4 4 4 3 3 3 3 3
7 6 8 10 8 3 2 3 4 7 5 5 8 7 4 5 9 9 10 9 8 8 9 8 8 7 7 7 7 7 7 8 8 7 6 5 5 4 4 3 3 3 3 3
6 5 5 6 5 2 2 5 4 5 9 9 9 10 10 11 12 12 12 11 9 9 9 9 8 7 7 7 7 7 7 7 7 7 6 5 5 4 4 4 3 3 3 4
4 4 3 1 1 2 3 6 6 4 5 6 6 6 7 8 8 10 11 12 11 11 10 10 9 9 8 8 8 8 7 7 7 7 6 5 5 5 4 4 3 3 3 3
3 4 4 1 3 4 4 5 2 2 2 5 6 7 6 8 9 10 11 11 11 10 10 10 10 10 9 8 8 8 7 7 7 7 7 6 6 6 4 4 4 3 3 3
4 4 4 2 4 3 7 3 1 2 4 2 3 4 8 10 8 6 8 10 9 9 10 9 9 8 7 6 7 7 7 7 7 7 6 6 6 5 5 4 4 3 3 4
6 6 4 4 2 4 5 5 3 1 4 6 2 4 7 10 10 6 3 7 9 10 9 8 8 8 8 9 9 9 7 7 8 7 6 6 6 6 5 5 4 4 4 3
5 6 6 4 3 4 5 8 5 5 3 8 3 4 5 8 6 2 1 5 7 7 8 8 8 8 9 9 10 11 8 7 7 7 7 6 7 7 6 5 4 3 3 3
3 3 4 4 3 4 5 8 5 5 3 5 3 4 6 5 4 3 3 5 7 8 8 9 9 8 8 8 10 10 8 7 6 6 7 6 6 6 6 4 4 4 4 4
5 4 4 5 4 6 6 5 4 4 2 3 6 6 7 7 7 6 7 8 9 9 8 8 8 7 6 8 10 9 7 6 6 7 7 6 6 6 6 5 4 4 4 4
2 6 5 6 5 3 2 4 3 4 5 4 5 5 7 8 7 6 6 7 8 8 8 7 9 8 6 6 8 9 6 7 7 7 7 6 5 5 5 5 5 4 3 3
4 2 4 4 2 2 4 5 5 5 5 5 6 5 7 7 6 6 6 6 7 6 6 6 8 8 6 5 6 7 7 7 7 7 7 6 6 5 5 4 4 4 3 3
4 3 3 3 1 4 5 5 4 6 7 8 8 7 7 7 6 5 5 5 5 6 5 6 7 7 6 6 5 6 7 7 8 7 6 6 6 6 5 4 3 3 2 2
3 2 3 3 4 3 1 1 4 7 6 7 7 6 4 4 5 5 5 4 5 5 6 7 7 7 6 6 6 5 6 7 7 6 5 5 5 5 5 5 4 6 4 2
Wind_Direction
288 83 245 241 225 222 253 289 291 270 252 118 132 147 168 169 164 161 161 164 164 170 173 162 160 159 157 157 158 162 161 166 159 155 153 152 165 173 178 185 183 181 179 176
9 265 243 245 259 264 274 303 308 301 318 94 114 152 176 173 173 170 165 166 163 157 157 161 160 162 163 165 166 166 166 166 167 165 162 162 163 176 186 188 185 183 180 180
223 246 261 264 263 281 297 294 298 298 351 33 75 5 303 228 149 164 167 167 165 166 167 170 170 170 167 171 172 173 171 170 172 166 153 139 124 116 149 185 190 194 188 187
248 254 266 273 261 217 286 284 330 19 49 328 74 246 280 211 159 173 173 168 165 165 164 172 174 173 176 178 174 169 172 172 174 168 169 166 170 182 198 192 193 198 192 188
259 266 273 262 247 219 237 275 8 34 80 13 12 119 281 125 164 190 182 173 168 165 167 173 175 176 175 172 169 168 167 172 174 175 179 176 179 187 181 174 185 199 202 197
259 275 247 236 247 225 213 36 26 40 62 6 277 141 267 227 200 184 182 176 166 161 162 163 164 159 162 163 164 164 165 172 175 177 179 179 182 177 169 178 187 198 206 207
300 297 276 254 257 329 80 80 27 360 9 262 283 142 246 250 203 170 171 173 163 154 153 154 158 161 164 164 166 167 169 174 175 175 178 183 184 181 180 184 188 190 197 206
227 279 262 222 185 181 158 135 155 193 223 282 339 233 259 249 178 148 149 151 142 141 146 157 166 168 168 169 169 171 174 174 175 176 181 181 180 182 185 184 185 193 200 206
197 251 275 247 201 157 155 174 171 144 173 305 295 292 327 45 103 119 130 130 140 150 152 156 164 168 168 169 172 174 172 171 178 179 175 175 177 179 184 188 189 196 200 202
180 249 287 280 179 182 163 155 99 117 150 232 284 254 216 200 175 147 140 141 152 151 151 146 153 165 166 166 166 168 170 175 175 175 174 177 180 184 182 176 187 190 191 187
179 205 290 346 193 200 174 142 123 132 152 153 225 267 229 191 173 157 159 160 163 164 166 159 159 167 164 157 156 162 167 164 168 171 169 169 177 178 173 177 190 188 178 176
178 162 241 263 262 211 176 176 149 156 212 162 169 264 280 173 165 156 158 165 166 165 164 159 157 158 155 156 159 164 168 164 164 163 161 166 168 165 165 173 182 177 168 167
160 142 205 319 330 337 190 180 162 143 133 153 165 253 309 133 140 146 151 160 168 160 151 149 154 157 158 162 164 167 167 165 159 156 157 160 163 162 167 169 168 157 150 145
137 129 169 199 212 233 270 260 171 132 157 201 208 213 224 164 152 158 160 165 162 159 152 151 155 157 157 162 160 157 159 159 155 152 154 159 164 162 158 153 145 142 143 144
110 137 168 193 203 188 274 291 262 195 185 186 215 202 206 190 172 168 165 163 159 163 161 161 159 162 162 159 155 149 149 150 150 147 151 158 152 146 141 134 130 127 126 126
69 117 111 5 341 16 325 308 302 268 213 198 185 216 213 183 157 155 162 164 168 173 169 163 161 166 167 164 156 150 148 149 143 142 145 147 134 130 130 129 123 117 117 115
47 96 93 302 345 34 308 278 267 288 290 182 192 219 172 147 153 159 163 165 172 176 168 168 169 168 170 166 159 158 155 146 142 147 146 142 138 135 133 129 121 121 120 112
117 91 110 105 67 216 247 276 166 116 20 18 159 163 156 152 142 129 142 157 161 166 168 170 164 160 158 156 151 146 141 140 141 144 144 144 140 138 135 130 125 119 111 114
130 124 105 110 148 272 304 335 345 107 20 0 76 117 121 123 91 65 105 148 155 160 165 164 159 155 150 150 141 130 132 137 140 144 145 147 145 141 137 132 123 118 113 110
75 98 110 115 140 214 267 303 306 106 27 339 39 111 122 110 110 171 188 133 127 130 137 144 144 141 143 148 140 132 137 142 148 149 149 148 145 144 142 136 129 122 120 119
59 69 127 147 178 256 283 313 18 109 211 315 48 82 96 100 144 171 125 113 116 117 124 130 132 139 145 141 133 132 138 150 151 141 138 136 136 137 133 127 127 125 119 111
175 160 173 148 173 247 311 26 83 168 194 48 59 70 84 90 86 79 92 103 111 113 118 124 125 123 130 135 133 134 141 140 130 126 126 128 132 135 131 127 124 123 125 121
173 184 174 170 193 232 14 94 123 133 99 72 67 71 92 91 85 82 83 99 108 115 119 118 121 120 120 129 135 138 145 134 127 124 124 123 117 112 119 124 126 120 118 124
326 23 104 97 91 73 57 64 58 77 89 79 79 82 91 96 97 98 93 99 107 108 112 116 120 123 122 120 126 135 136 130 126 127 128 129 122 112 102 101 114 121 128 136
317 26 69 87 60 46 30 44 56 61 65 62 63 70 81 97 104 102 100 108 115 115 111 116 121 124 127 123 118 125 130 130 128 127 127 125 119 121 109 92 81 116 140 170
333 97 124 188 229 169 208 9 69 70 64 67 68 64 79 109 114 106 106 113 114 118 117 118 117 121 127 126 121 125 130 130 131 133 134 133 129 125 124 119 88 47 46 47
Height
1514 1519 1525 1520 1518 1518 1517 1519 1519 1510 1499 1503 1508 1510 1509 1509 1512 1514 1517 1519 1522 1525 1528 1530 1533 1536 1539 1541 1543 1545 1547 1550 1552 1554 1556 1558 1560 1561 1563 1565 1566 1568 1569 1570
1520 1522 1513 1510 1510 1512 1513 1518 1517 1508 1499 1504 1510 1512 1509 1509 1510 1511 1513 1516 1519 1523 1527 1530 1532 1535 1537 1539 1542 1544 1546 1548 1550 1552 1555 1557 1559 1560 1562 1564 1565 1566 1567 1568
1522 1514 1506 1508 1510 1512 1512 1515 1514 1512 1505 1506 1512 1522 1515 1511 1511 1512 1513 1515 1517 1520 1524 1528 1531 1533 1535 1538 1540 1542 1545 1547 1549 1551 1553 1555 1557 1559 1560 1561 1563 1564 1565 1566
1515 1506 1506 1508 1508 1508 1517 1506 1506 1509 1520 1528 1521 1542 1524 1516 1514 1513 1513 1514 1516 1519 1522 1525 1529 1531 1533 1536 1539 1541 1544 1546 1548 1550 1551 1552 1554 1556 1557 1559 1561 1562 1563 1564
1513 1504 1506 1508 1504 1502 1506 1501 1505 1509 1519 1530 1527 1538 1533 1519 1519 1515 1513 1513 1515 1517 1520 1523 1526 1529 1532 1535 1537 1540 1542 1544 1546 1547 1549 1550 1552 1554 1556 1557 1559 1560 1561 1562
1507 1501 1501 1500 1496 1496 1498 1505 1512 1521 1531 1546 1533 1537 1538 1524 1516 1513 1513 1513 1514 1517 1520 1523 1526 1529 1531 1534 1537 1539 1541 1542 1544 1545 1547 1549 1550 1551 1553 1555 1556 1558 1559 1560
1511 1502 1496 1496 1500 1498 1503 1527 1549 1550 1559 1553 1532 1534 1534 1512 1508 1508 1509 1511 1513 1517 1520 1522 1525 1527 1530 1532 1534 1537 1539 1540 1542 1543 1545 1547 1548 1549 1550 1552 1554 1555 1556 1557
1523 1521 1498 1493 1498 1504 1508 1523 1551 1560 1561 1552 1535 1536 1523 1505 1503 1506 1508 1511 1514 1517 1519 1522 1523 1525 1528 1530 1532 1534 1536 1538 1540 1541 1543 1545 1546 1548 1549 1550 1552 1553 1554 1555
1521 1518 1494 1489 1488 1495 1507 1518 1521 1541 1545 1553 1545 1530 1516 1506 1506 1508 1510 1512 1515 1516 1518 1521 1522 1524 1526 1528 1530 1532 1534 1536 1538 1540 1542 1543 1544 1546 1547 1548 1550 1551 1552 1553
1505 1513 1498 1489 1487 1490 1495 1505 1527 1541 1555 1561 1548 1537 1531 1516 1512 1511 1512 1514 1515 1517 1518 1519 1522 1523 1526 1527 1529 1531 1533 1534 1536 1538 1540 1542 1543 1544 1546 1547 1548 1549 1550 1550
1497 1511 1506 1497 1497 1500 1499 1505 1519 1536 1542 1556 1558 1543 1509 1507 1507 1509 1511 1512 1514 1516 1517 1519 1521 1524 1526 1527 1529 1531 1532 1533 1535 1537 1539 1540 1542 1543 1544 1545 1546 1547 1547 1548
1491 1506 1516 1505 1491 1486 1491 1499 1514 1532 1537 1543 1549 1538 1500 1501 1503 1505 1508 1510 1511 1514 1516 1518 1521 1524 1525 1527 1528 1530 1532 1533 1534 1536 1538 1539 1540 1541 1542 1543 1544 1545 1545 1546
1487 1505 1521 1518 1508 1493 1492 1494 1502 1515 1529 1540 1544 1531 1501 1501 1503 1504 1505 1507 1509 1512 1515 1518 1521 1523 1525 1527 1529 1530 1532 1533 1534 1535 1537 1538 1539 1540 1541 1541 1542 1543 1543 1544
1478 1499 1511 1520 1514 1499 1496 1493 1495 1510 1527 1531 1526 1518 1506 1502 1502 1502 1503 1504 1507 1511 1514 1517 1520 1522 1524 1526 1528 1530 1531 1533 1534 1535 1536 1537 1538 1539 1540 1540 1541 1541 1541 1542
1478 1495 1494 1495 1492 1490 1492 1492 1492 1500 1507 1516 1511 1508 1501 1498 1498 1499 1501 1504 1508 1511 1512 1515 1519 1521 1523 1526 1527 1529 1531 1532 1533 1534 1535 1536 1537 1538 1538 1539 1539 1539 1540 1540
1482 1491 1492 1494 1488 1488 1491 1489 1489 1491 1493 1497 1498 1500 1491 1493 1496 1498 1501 1503 1506 1509 1511 1514 1517 1519 1522 1524 1526 1527 1529 1531 1532 1533 1533 1534 1536 1536 1537 1537 1538 1538 1538 1539
1488 1493 1503 1506 1495 1493 1503 1493 1491 1492 1488 1490 1498 1495 1489 1493 1495 1496 1499 1502 1504 1507 1510 1513 1515 1518 1520 1522 1524 1526 1527 1529 1530 1531 1532 1532 1533 1535 1536 1536 1537 1537 1537 1537
1488 1496 1506 1509 1504 1515 1504 1486 1485 1487 1488 1485 1485 1486 1486 1489 1493 1496 1498 1501 1504 1507 1510 1512 1515 1517 1519 1522 1523 1525 1526 1527 1528 1530 1531 1532 1533 1534 1535 1535 1535 1536 1536 1536
1483 1493 1506 1515 1516 1509 1495 1487 1487 1490 1495 1489 1487 1486 1488 1490 1493 1498 1500 1501 1502 1505 1507 1510 1513 1516 1518 1520 1522 1523 1524 1526 1527 1528 1530 1531 1532 1533 1534 1534 1534 1535 1535 1535
1484 1489 1504 1512 1514 1517 1502 1487 1483 1487 1501 1492 1489 1488 1488 1489 1499 1502 1500 1500 1502 1503 1506 1508 1512 1515 1517 1519 1521 1522 1523 1525 1526 1527 1528 1530 1531 1532 1533 1533 1534 1534 1535 1534
1496 1499 1505 1510 1513 1509 1493 1486 1483 1502 1506 1494 1490 1489 1489 1491 1496 1499 1499 1500 1501 1503 1505 1508 1511 1513 1515 1517 1519 1520 1521 1523 1525 1526 1528 1529 1530 1531 1532 1533 1533 1534 1534 1533
1499 1505 1507 1511 1516 1513 1492 1488 1494 1499 1496 1494 1491 1491 1492 1493 1495 1497 1498 1499 1501 1503 1506 1509 1510 1512 1515 1516 1517 1519 1521 1522 1524 1526 1527 1528 1529 1530 1531 1532 1532 1533 1532 1532
1495 1496 1499 1502 1506 1497 1492 1492 1494 1494 1495 1494 1493 1494 1493 1494 1496 1498 1499 1501 1503 1504 1507 1509 1510 1512 1514 1516 1517 1518 1520 1521 1523 1524 1525 1527 1528 1529 1529 1530 1531 1531 1531 1531
1491 1488 1493 1498 1498 1495 1494 1494 1494 1494 1495 1495 1495 1495 1494 1495 1497 1499 1501 1502 1503 1506 1507 1509 1511 1512 1513 1515 1517 1518 1519 1520 1521 1523 1524 1525 1526 1527 1528 1528 1529 1529 1529 1529
1494 1492 1495 1499 1498 1497 1496 1496 1496 1496 1496 1496 1496 1496 1496 1498 1499 1500 1501 1503 1505 1506 1508 1510 1511 1512 1513 1515 1516 1517 1518 1520 1520 1521 1522 1524 1525 1525 1526 1527 1527 1528 1528 1528
1495 1496 1499 1501 1498 1498 1498 1497 1497 1497 1497 1498 1498 1499 1499 1500 1500 1500 1502 1503 1505 1506 1508 1509 1510 1511 1513 1514 1515 1516 1517 1518 1519 1519 1521 1522 1522 1523 1524 1525 1525 1526 1526 1526